Location: Camden Lake
(44.4269°N, 76.8469°W)
Time: 03:00:28
(UTC-05:00)

Daily predictions for brighter satellites

Satellite Brightness Start Highest point End
(mag) Time Altitude Azimuth Time Altitude Azimuth Time Altitude Azimuth
USA 234 4.4 04:08:27 10° ENE 04:14:08 33° NNE 04:14:08 33° NNE
COSMO-SKYMED 1 4.2 04:35:11 10° SE 04:38:54 32° ENE 04:38:54 32° ENE
SL-16 R/B 2.7 04:57:16 49° S 04:57:16 49° S 05:01:23 10° SSE
SeaSat 1 3.5 04:54:10 10° NNE 04:57:03 35° NNE 04:57:03 35° NNE
Cosmos 1816 Rocket 4.3 04:59:06 54° NNW 05:00:36 79° W 05:06:50 10° S
Cosmos 2297 Rocket 3.0 05:05:23 37° N 05:05:23 37° N 05:09:04 10° NNE
ISS -0.4 05:09:16 12° SSE 05:09:16 12° SSE 05:09:34 10° SSE
Cosmos 968 Rocket 3.5 05:06:47 50° S 05:08:11 81° ESE 05:13:30 10° NNE
USA 229 DEB 4.0 05:13:19 45° WSW 05:13:19 45° WSW 05:19:57 10° S
USA 229 4.0 05:13:22 46° WSW 05:13:22 46° WSW 05:20:03 10° S
Cosmos 2227 Rocket 3.5 05:18:50 25° NNW 05:18:50 25° NNW 05:21:48 10° N
ATLAS CENTAUR R/B 4.2 05:16:30 15° N 05:17:11 16° NNE 05:20:54 10° NE
Cosmos 773 Rocket 4.2 05:17:12 27° N 05:20:05 69° ENE 05:25:22 10° SSE
Meteor 1-16 Rocket 4.1 05:19:43 10° S 05:25:07 81° E 05:30:27 10° NNE
Meteor 1-28 Rocket 3.7 05:21:28 10° SSE 05:25:10 59° ENE 05:26:20 38° NNE
Feng Yun 1-1 Rocket 4.2 05:20:11 10° N 05:25:30 55° WNW 05:26:07 52° W
Meteor 1-11 4.3 05:20:26 10° N 05:26:17 83° E 05:32:06 10° SSE
Cosmos 2058 3.1 05:24:24 30° N 05:26:21 67° E 05:30:27 10° SSE
Cosmos 1626 4.2 05:23:04 10° NNE 05:26:21 28° ENE 05:29:36 10° SE
SKYMED 2 3.4 05:22:40 10° S 05:27:00 80° WSW 05:27:32 67° NW
NOSS 3-1 (A) 4.0 05:22:15 26° NW 05:27:01 84° NE 05:35:23 10° SE
Cosmos 1271 Rocket 3.0 05:23:51 10° S 05:27:37 66° E 05:31:23 10° NNE
NOAA 6 3.9 05:22:56 10° N 05:28:09 78° WNW 05:33:20 10° SSW
ADEOS II 4.3 05:27:57 10° N 05:28:18 12° NNW 05:28:18 12° NNW
Cosmos 1464 Rocket 4.4 05:28:22 10° S 05:34:37 67° E 05:40:50 10° NNE
ATLAS 2AS CENTAUR R/B 4.0 05:28:41 13° NNW 05:35:24 41° NE 05:42:38 10° ESE
Cosmos 1340 Rocket 2.7 05:34:58 44° N 05:36:10 88° E 05:40:07 10° S
Cosmos 1943 4.1 05:31:26 11° NNW 05:36:49 46° ENE 05:42:16 10° SE
Cosmos 292 Rocket 4.3 05:33:20 16° N 05:37:05 58° ENE 05:41:48 10° SE
Cosmos 2221 2.9 05:34:39 10° S 05:38:56 65° E 05:43:13 10° NNE
SL-14 R/B 3.3 05:41:34 57° WSW 05:41:34 57° WSW 05:45:26 10° S
SL-24 R/B 4.5 05:37:47 10° N 05:42:34 69° WNW 05:48:16 10° SSW
Cosmos 1777 Rocket 3.9 05:43:22 10° SSW 05:48:36 85° WNW 05:53:50 10° NNE
Cosmos 1356 Rocket 3.7 05:45:05 10° N 05:49:10 65° ENE 05:53:19 10° SSE
Cosmos 1072 Rocket 4.4 05:49:12 10° S 05:55:23 80° W 06:01:32 10° N
Tiangong 2 3.6 05:53:42 10° SSW 05:55:54 18° SSE 05:58:08 10° ESE
USA 234 3.6 05:49:58 10° ESE 05:56:26 62° NNE 06:01:28 18° NW
ERBS 3.6 05:59:49 25° SW 05:59:49 25° SW 06:02:22 10° S
Cosmos 1603 3.7 05:56:06 20° NW 05:59:58 59° WSW 06:05:30 10° S
Cosmos 2151 3.4 05:59:21 35° WNW 06:00:01 37° W 06:03:55 10° SSW
Meteor 2-1 Rocket 4.1 05:55:14 10° SSW 06:00:52 79° W 06:06:40 10° N
Cosmos 2263 Rocket 3.7 05:56:40 10° S 06:01:53 39° ESE 06:07:08 10° NE
Aureole 1 4.3 06:01:28 10° SSW 06:04:32 68° WNW 06:08:21 10° NNE
NOSS 3-1 (C) 4.3 06:01:36 20° NW 06:06:54 50° WSW 06:14:51 10° S
Cosmos 1908 3.9 06:10:49 10° S 06:14:32 57° E 06:18:19 10° NNE
COSMO-SKYMED 1 3.6 06:11:39 10° SSW 06:15:14 25° W 06:16:07 23° WNW
CZ-2C R/B 2.8 06:12:37 10° NNE 06:17:10 61° E 06:21:41 10° S
CSL-04 Rocket 3.5 06:13:03 10° N 06:18:21 70° WNW 06:23:35 10° SSW
IDEFIX/ARIANE 42P 3.1 06:13:11 10° NNE 06:18:27 65° E 06:23:40 10° S
Cosmos 1805 Rocket 3.7 06:15:35 10° NNW 06:19:54 53° W 06:24:09 10° S
CZ-4 R/B 1.6 06:17:44 10° NNE 06:21:49 74° ESE 06:25:56 10° S
TELKOM 3 3.1 06:21:13 34° W 06:22:01 55° NNW 06:24:09 10° ENE
Ariane Rocket 3.1 06:17:10 10° N 06:22:07 52° WNW 06:27:03 10° SW
Cosmos 923 Rocket 4.2 06:18:04 10° NNW 06:23:05 49° WSW 06:28:08 10° S
Cosmos 2228 Rocket 3.6 06:23:07 10° S 06:27:30 63° E 06:31:52 10° NNE
Meteor 1-29 4.3 06:24:25 10° SE 06:27:43 41° ENE 06:31:03 10° N
SL-8 R/B 4.1 06:25:32 18° WNW 06:28:49 49° SSW 06:33:26 10° SE
Cosmos 1680 Rocket 3.7 06:25:59 10° NNW 06:31:10 55° WSW 06:36:21 10° S
CZ-3 Stage 3 4.3 06:29:58 10° SW 06:34:50 25° S 06:49:33 10° SE
SeaSat 1 4.1 06:33:26 10° NNW 06:35:48 14° NW 06:36:52 13° NW
Cosmos 1898 Rocket 4.4 06:30:50 10° S 06:35:56 55° ESE 06:41:08 10° NNE
AQUARIUS 4.2 06:32:55 10° NNE 06:37:27 86° ESE 06:41:57 10° SSW
Sich 1 3.2 06:36:27 10° NNW 06:40:40 48° W 06:44:49 10° SSW
Cosmos 1633 Rocket 3.3 06:41:37 10° NNW 06:45:50 48° W 06:50:00 10° SSW
PAYLOAD A 4.1 06:41:37 10° N 06:46:28 49° WNW 06:51:06 10° SW
Coronas F rocket 1.9 06:44:23 10° NNW 06:46:31 29° W 06:48:40 10° SSW
Cosmos 2297 Rocket 4.0 06:47:17 10° NW 06:48:59 11° NW 06:50:42 10° NNW
MSX 4.1 06:44:02 10° NNE 06:49:49 78° ESE 06:55:36 10° S
Cosmos 2034 Rocket 4.3 06:44:39 10° SSW 06:50:33 45° WNW 06:56:33 10° N
Cosmos 1328 Rocket 3.5 06:46:14 10° SSW 06:50:34 77° W 06:54:57 10° N
Nadezhda 4 Rocket 4.1 06:45:38 10° NNW 06:51:49 56° W 06:57:55 10° SSW
Cosmos 389 Rocket 2.9 06:52:15 10° SSW 06:55:46 42° WNW 06:59:17 10° N
Cosmos 2026 Rocket 4.4 06:49:46 10° N 06:55:49 68° E 07:01:52 10° SSE
Cosmos 1515 Rocket 3.6 06:54:54 10° S 06:59:19 84° W 07:03:47 10° N
Cosmos 1626 3.5 06:58:49 10° NW 07:01:33 19° W 07:04:15 10° SW
CZ-4 R/B 4.4 06:58:16 10° N 07:02:24 73° WNW 07:06:30 10° SSW
Cosmos 1151 Rocket 3.3 06:58:12 10° S 07:02:28 72° E 07:06:44 10° NNE
Gbstr 26 Del rocket 4.2 06:57:46 10° SW 07:03:24 74° SE 07:10:26 10° ENE
Cosmos 2344 3.7 06:58:18 10° SW 07:06:00 83° NW 07:14:55 10° NE
MOS 1 4.3 07:00:30 10° N 07:06:12 71° WNW 07:11:52 10° SSW
